Wind_Speed
103 103 103 102 102 102 102 101 101 101 101 101 102 102 102 102 102 103 103 103 104 105 106 106 107 109 110 111 111 112 113 113 113 113 113 113 113 113 113 113 114 114 114 115 115 116 117 118 118 119 120 120 121 122 122 123 123 124 124 124 124 124 124 123 122 121 119 117 114 110 106 102 98 95 92 89 88 86 85 84 82 81 80 79 79 78
105 105 105 104 104 104 104 104 104 104 104 105 105 105 105 106 106 106 106 106 107 107 107 107 108 109 109 110 111 112 113 114 114 115 115 115 115 116 116 116 117 117 118 118 118 119 119 120 121 121 122 122 123 123 123 123 123 123 122 122 122 121 120 119 117 114 111 108 104 100 96 93 91 88 87 85 84 83 81 80 79 78 77 76 76 75
107 108 108 108 108 108 108 108 108 108 108 109 109 109 110 110 110 111 111 111 111 111 110 110 111 111 112 112 113 114 114 115 116 116 117 118 118 119 119 119 120 120 120 121 121 121 121 122 122 122 122 122 122 121 121 121 120 120 119 118 117 116 114 111 108 104 100 97 94 91 89 87 86 84 83 82 80 79 78 77 76 75 74 73 73 72
112 112 113 113 113 113 113 113 113 113 113 114 114 114 114 115 115 115 115 115 115 115 115 115 115 116 116 116 117 117 118 118 119 119 120 120 121 121 122 122 122 122 122 122 122 121 121 121 121 120 120 120 119 119 118 118 117 115 114 112 110 107 103 100 97 94 91 89 88 86 85 83 82 81 79 78 77 76 75 74 73 72 71 70 70 69
118 118 118 118 118 118 119 119 119 119 119 119 119 119 120 120 120 120 120 120 120 120 120 120 120 120 120 121 121 121 122 122 122 122 123 123 123 123 124 123 123 123 123 122 122 121 120 120 119 119 118 117 116 115 114 112 110 108 105 102 99 96 93 91 89 87 86 85 84 83 82 80 79 78 77 76 74 73 72 72 71 70 69 68 68 67
123 123 123 123 123 123 123 123 123 123 124 124 124 124 124 124 124 124 123 123 123 123 123 122 122 122 122 123 123 123 123 123 124 124 124 124 124 124 124 124 123 123 122 122 121 120 119 118 117 115 114 113 111 109 106 103 101 98 95 92 90 88 86 85 84 83 83 82 81 80 79 78 77 75 74 73 72 71 70 69 69 68 67 66 66 65
125 125 125 125 125 126 126 126 126 126 127 127 127 127 127 127 126 126 126 125 125 124 124 123 123 123 123 122 123 123 123 123 123 123 123 123 123 123 123 122 121 121 120 119 117 116 115 113 111 109 107 105 102 99 97 94 92 89 87 86 84 83 82 82 81 80 80 79 79 78 77 76 74 73 72 71 70 69 68 67 67 66 66 65 64 64
125 125 125 126 126 126 126 126 127 127 127 127 127 127 127 127 126 126 125 125 124 123 122 122 122 121 121 121 121 121 121 121 121 121 121 120 120 119 118 118 117 116 115 113 112 110 108 106 104 101 99 96 93 91 89 87 85 84 83 82 81 80 79 79 78 78 77 77 76 76 75 74 72 71 70 69 68 67 66 66 65 65 64 64 63 63
123 123 123 123 123 123 123 123 123 123 123 123 122 123 123 122 122 122 121 121 120 119 119 118 118 118 118 118 117 117 117 117 116 116 115 115 114 113 113 112 111 110 108 107 105 103 101 98 96 94 91 89 87 86 84 83 81 80 79 78 78 77 77 76 76 76 75 75 74 74 73 72 71 69 68 67 66 65 65 64 64 63 63 62 62 61
118 118 118 118 118 117 117 117 117 117 116 116 116 116 116 116 116 115 115 115 114 114 113 113 113 113 113 113 112 112 111 111 111 110 109 109 108 107 106 105 104 103 102 100 98 96 94 93 91 89 87 85 84 82 81 79 78 77 76 76 75 75 75 74 74 74 74 73 73 72 71 70 69 68 66 65 65 64 63 63 63 62 62 61 61 60
112 112 111 111 111 111 110 110 110 110 110 109 109 109 109 109 109 108 108 108 108 108 108 107 107 107 107 107 106 106 105 105 105 104 103 103 102 101 101 100 99 98 97 95 94 93 91 90 88 86 85 83 81 80 78 77 76 75 74 74 74 73 73 73 73 72 72 71 71 70 69 68 67 66 65 64 63 63 62 62 61 61 61 60 60 59
105 105 105 105 105 105 104 105 105 104 104 104 104 104 104 104 103 103 103 103 103 103 102 102 102 102 102 101 101 101 101 100 100 100 99 98 98 97 96 96 95 94 94 93 92 91 89 88 87 85 83 81 79 78 76 75 75 74 73 73 72 72 72 72 71 71 70 70 69 68 67 66 65 64 63 63 62 62 61 61 60 60 59 59 59 58
99 99 99 99 99 99 99 100 100 100 100 100 100 100 100 100 99 99 99 99 99 99 99 98 98 98 98 98 98 97 97 97 97 97 96 96 95 95 94 94 93 93 92 91 91 90 88 87 85 84 82 80 79 77 76 75 74 74 73 72 72 71 71 70 70 69 69 68 67 67 66 65 64 63 62 62 61 60 60 59 59 59 58 58 58 57
94 94 94 94 94 95 95 96 96 97 97 97 97 97 97 96 96 96 96 96 96 96 96 96 96 96 96 96 96 95 95 95 95 95 95 94 94 94 93 93 93 92 92 91 90 89 88 86 85 83 82 80 79 78 77 76 75 74 73 72 71 71 70 69 68 68 67 66 66 65 64 63 62 61 61 60 60 59 59 58 58 58 57 57 56 56
90 90 91 91 92 92 93 93 94 94 95 95 95 95 95 95 94 94 94 94 94 94 94 95 95 95 95 95 95 94 94 95 95 95 94 94 94 93 93 93 92 92 91 90 90 88 87 86 85 83 82 81 79 78 77 77 76 75 73 72 71 70 69 68 67 66 66 65 64 63 62 62 61 60 59 59 58 58 58 57 57 57 56 56 55 55
88 89 89 90 90 91 92 92 93 93 94 94 94 94 94 94 93 93 93 93 93 94 94 94 94 95 95 95 94 94 94 94 95 95 95 94 94 93 93 93 92 92 91 90 90 89 87 86 85 84 82 81 80 79 78 77 76 75 74 72 71 69 68 67 66 65 64 63 63 62 61 60 59 59 58 58 57 57 56 56 56 55 55 55 54 54
88 89 89 89 90 91 91 92 92 93 93 94 94 94 94 93 93 93 93 93 93 93 94 94 94 95 95 95 95 95 95 95 95 95 95 95 95 94 93 93 93 92 91 91 90 89 88 87 86 84 83 81 80 79 78 77 76 75 74 72 70 69 67 66 65 64 63 62 61 60 59 59 58 58 57 57 56 56 55 55 55 54 54 54 53 53
89 89 89 90 90 91 92 92 93 93 94 94 94 94 94 93 93 93 93 93 94 94 94 95 95 95 95 96 96 96 95 95 95 96 96 96 95 94 94 93 93 92 92 91 90 90 89 88 87 85 84 82 81 79 78 77 76 75 73 71 70 68 66 65 64 62 61 60 60 59 58 57 57 56 56 56 55 55 54 54 54 53 53 53 52 52
90 90 90 91 91 92 92 93 93 94 94 94 94 94 94 94 94 94 94 94 94 95 95 95 95 96 96 97 97 97 96 96 96 96 96 96 96 95 94 94 93 93 92 91 91 90 89 89 88 86 85 83 82 80 79 77 76 74 73 71 69 67 65 64 62 61 60 59 58 58 57 56 56 55 55 55 54 54 54 53 53 52 52 52 51 50
91 92 92 92 92 93 93 93 94 94 95 95 95 95 95 95 95 95 95 95 95 95 95 95 96 96 97 97 97 97 97 97 97 97 97 97 97 96 95 94 94 93 92 92 91 90 90 89 88 87 86 84 82 81 79 77 76 74 72 70 68 66 64 62 61 60 59 58 57 56 56 55 55 54 54 54 53 53 53 52 52 51 51 50 50 49
93 93 93 93 93 94 94 94 95 95 95 95 95 96 96 96 96 96 96 96 96 96 96 96 96 97 97 97 98 98 98 97 97 98 98 98 98 97 96 95 94 94 93 92 91 90 90 89 89 87 86 84 83 81 79 77 75 73 71 68 66 64 63 61 60 59 58 57 56 55 55 54 54 54 53 53 52 52 52 51 51 50 50 49 48 47
94 94 95 95 95 95 95 95 96 96 96 96 96 96 96 96 96 96 96 96 96 96 96 96 97 97 97 98 98 98 98 98 98 98 98 99 99 98 97 96 95 94 93 92 91 90 90 89 88 87 86 84 82 81 79 76 74 72 69 67 65 63 61 60 58 57 57 56 55 54 54 53 53 53 52 52 52 51 51 50 50 49 48 48 47 46
95 96 96 96 96 96 96 96 97 97 97 97 97 97 97 97 97 97 97 96 96 96 97 97 97 98 98 98 99 99 99 98 98 98 98 99 100 99 98 97 96 95 94 93 91 90 90 89 88 87 86 84 82 80 78 75 73 70 68 66 63 61 60 58 57 56 55 55 54 53 53 53 52 52 51 51 51 50 50 49 49 48 47 46 45 45
97 97 97 97 97 97 97 97 97 98 98 98 98 98 98 98 97 97 97 97 97 97 97 97 98 98 98 99 99 99 99 99 99 99 99 99 100 100 99 98 97 95 94 93 91 90 90 89 88 87 85 84 82 80 77 74 72 69 67 64 62 60 58 57 56 55 54 54 53 53 52 52 51 51 51 50 50 49 49 48 47 46 46 45 44 44
98 98 99 99 99 99 99 99 99 99 99 99 99 99 99 99 98 98 98 97 97 98 98 98 98 98 99 99 99 100 100 100 99 99 99 100 100 100 99 98 97 95 94 93 91 90 90 89 88 86 85 83 81 79 76 73 71 68 65 63 61 59 57 56 55 54 53 53 52 52 51 51 50 50 50 49 49 48 47 47 46 45 44 44 43 43
100 100 100 100 100 100 100 100 100 100 100 100 100 100 100 100 99 99 98 98 98 98 98 98 99 99 100 100 100 100 100 100 100 99 99 99 100 100 99 98 96 95 94 92 91 90 89 88 87 85 84 82 80 77 75 72 69 67 64 61 59 58 56 55 54 53 52 52 51 51 50 50 50 49 49 48 48 47 46 45 44 44 43 43 43 43
101 101 101 102 102 102 102 102 102 102 101 101 101 101 101 101 100 100 100 100 99 99 99 99 100 100 100 100 100 100 100 100 100 99 99 99 99 99 99 98 96 94 93 92 91 90 89 88 86 85 83 81 78 76 73 70 67 65 62 60 58 56 55 54 53 52 51 51 50 50 49 49 49 48 48 47 46 45 45 44 43 43 43 43 42 42
103 103 103 103 103 103 103 103 103 103 103 103 102 102 102 101 101 101 101 101 100 100 100 100 100 100 100 100 100 100 100 100 100 100 99 99 99 99 99 97 95 93 92 91 90 89 88 87 86 84 82 79 76 74 71 68 66 63 61 58 57 55 54 53 52 51 50 50 49 49 49 48 48 47 46 46 45 44 43 43 43 43 42 42 42 42
104 104 104 104 104 104 105 104 104 104 104 104 103 103 103 102 102 102 102 102 101 101 101 101 101 101 101 101 101 101 100 100 100 100 99 98 98 99 98 96 95 93 91 90 89 88 88 86 84 82 80 77 75 72 69 67 64 62 59 57 55 54 53 52 51 50 50 49 49 48 48 47 47 46 45 45 44 43 43 42 42 42 42 42 42 41
106 106 106 106 106 106 106 106 105 105 105 105 104 104 104 103 103 103 103 102 102 102 102 102 102 101 101 101 101 101 101 101 100 100 99 98 98 98 97 96 94 92 90 88 88 88 87 86 83 81 78 75 73 70 67 65 62 60 58 56 54 53 52 51 50 49 49 48 48 47 47 46 46 45 44 43 43 42 42 42 42 42 42 42 41 41
108 107 107 107 107 107 107 107 107 106 106 106 105 105 105 104 104 104 104 103 103 103 103 102 102 102 101 101 101 101 101 101 101 100 99 98 98 98 97 95 93 91 89 87 86 86 86 85 82 79 76 73 71 68 66 63 61 59 57 55 53 52 51 50 49 49 48 48 47 47 46 45 44 44 43 42 42 42 42 42 42 41 41 41 41 40
110 109 109 108 108 108 108 108 108 107 107 107 107 106 106 105 105 105 104 104 104 104 103 103 103 102 102 101 101 101 101 101 101 100 98 98 97 97 96 94 92 90 88 86 85 85 84 83 81 78 75 72 69 66 64 62 59 57 56 54 53 52 50 49 49 48 47 47 46 46 45 44 43 43 42 42 41 41 41 41 41 41 41 40 40 40
111 111 110 110 109 109 109 109 109 108 108 108 108 107 107 106 106 106 105 105 105 104 104 104 103 103 102 102 101 101 101 101 100 99 98 97 97 96 95 93 91 89 87 85 84 84 83 81 79 76 73 70 67 65 62 60 58 56 55 53 52 51 50 49 48 47 47 46 46 45 44 43 42 42 41 41 41 41 41 41 41 40 40 40 39 39
113 112 111 111 110 110 110 110 110 109 109 109 109 108 108 107 107 106 106 106 105 105 105 104 103 103 102 102 102 102 101 101 100 99 98 97 97 96 94 92 90 88 86 84 83 83 81 80 77 74 71 68 66 63 61 59 57 55 54 52 51 50 49 48 47 47 46 46 45 44 43 42 41 41 41 41 41 40 40 40 40 40 39 39 39 38
113 113 112 112 111 111 111 111 110 110 110 110 109 109 109 108 108 107 107 106 106 106 105 104 104 103 102 102 102 102 102 101 100 99 98 97 96 95 93 91 89 87 84 83 82 81 80 78 75 72 69 67 64 62 60 58 56 54 53 51 50 49 48 47 47 46 46 45 44 43 42 41 40 40 40 40 40 40 40 40 39 39 39 38 38 38
114 113 113 112 112 112 112 111 111 111 111 111 110 110 110 109 108 108 107 107 106 106 105 105 104 103 102 102 102 102 101 101 100 99 98 97 96 94 92 90 88 85 83 82 81 80 79 76 73 70 68 65 63 61 58 56 55 53 52 51 49 49 48 47 46 45 45 44 43 42 41 40 40 40 40 40 40 39 39 39 39 38 38 38 37 37
114 113 113 112 112 112 112 112 112 112 111 111 111 110 110 109 109 108 108 107 107 106 106 105 104 103 103 102 102 101 101 100 100 99 98 96 95 93 91 89 86 84 82 80 79 78 76 74 71 69 66 64 62 59 57 56 54 53 51 50 49 48 47 46 46 45 44 43 42 41 40 40 40 40 40 40 39 39 39 38 38 38 37 37 37 36
112 112 112 112 112 112 112 112 112 112 112 111 111 111 110 110 109 108 108 107 107 106 106 105 104 104 103 102 102 101 101 100 99 98 97 96 94 92 90 87 85 82 80 79 78 76 74 72 70 67 64 62 60 58 56 55 53 52 51 50 48 47 47 46 45 44 43 42 41 40 39 39 39 39 39 39 39 38 38 38 37 37 37 37 36 36
111 111 111 111 111 111 112 112 112 112 111 111 111 110 110 109 109 108 108 107 107 106 106 105 104 103 103 102 101 101 100 99 99 98 96 95 93 90 88 85 83 80 79 77 76 74 72 70 68 65 63 61 58 56 55 54 53 52 50 49 48 47 46 45 44 43 42 41 40 39 39 39 39 39 39 39 38 38 38 37 37 37 36 36 35 35
108 108 109 109 109 110 110 111 111 111 110 110 110 109 109 109 108 108 107 107 106 106 105 104 104 103 102 101 101 100 99 99 98 96 95 93 91 88 86 83 81 79 77 76 74 73 70 68 66 63 61 59 57 55 54 53 52 51 50 49 48 47 46 45 44 43 42 40 39 39 39 39 39 39 39 38 38 37 37 37 36 36 35 35 34 34
104 105 106 107 107 108 108 109 109 109 109 108 108 108 108 108 107 107 107 106 105 105 104 104 103 102 101 101 100 99 98 97 96 95 94 91 89 86 84 81 79 77 75 74 73 71 69 66 64 61 59 57 55 54 53 52 52 50 49 48 48 46 45 44 43 42 41 40 39 38 38 38 38 38 38 38 37 37 37 36 36 35 35 34 34 33
100 101 102 103 104 105 105 105 106 106 106 106 106 106 106 106 106 105 105 105 104 104 103 102 102 101 100 99 98 97 97 96 95 93 91 89 87 84 81 79 76 75 73 72 71 69 67 64 62 59 57 55 54 53 52 52 51 50 49 48 47 45 44 43 42 41 40 39 38 38 38 38 38 38 38 37 37 37 36 36 35 34 34 33 33 32
95 96 98 99 100 100 101 102 102 103 103 103 103 104 103 103 103 103 103 103 102 102 101 101 100 99 99 98 97 96 95 94 92 91 89 87 84 82 79 76 74 73 71 70 69 67 65 62 60 58 56 54 52 52 52 51 50 49 48 47 45 44 43 42 41 40 39 38 37 37 37 37 38 37 37 37 36 36 36 35 34 34 33 33 32 31
90 91 93 94 95 95 96 98 98 99 99 100 100 100 100 100 100 100 100 100 100 99 99 98 97 97 96 96 95 94 93 91 90 88 86 84 82 79 76 74 72 70 69 68 66 65 62 60 58 56 54 52 51 51 51 50 49 48 47 45 44 43 42 41 40 39 38 37 37 37 37 37 37 37 37 36 36 35 35 34 34 33 32 32 31 31
86 87 88 89 90 91 92 93 94 94 95 95 96 96 96 96 96 96 97 96 96 96 95 95 94 94 94 93 92 91 90 89 87 85 83 81 79 76 73 71 70 68 67 66 64 62 60 58 56 54 52 51 51 50 50 49 48 47 46 44 43 42 41 40 39 38 37 37 37 37 37 37 37 36 36 36 35 35 34 34 33 32 31 31 30 30
81 82 83 84 85 86 88 89 89 90 90 91 91 92 92 92 92 92 92 92 92 92 92 91 91 91 90 90 89 88 87 86 84 82 80 78 76 73 71 69 67 66 65 63 61 60 58 56 55 53 51 50 50 50 49 48 47 46 44 43 41 40 39 39 38 37 37 36 36 36 36 36 36 36 36 35 35 34 33 33 32 31 31 30 30 29
77 78 79 80 81 82 83 84 85 85 86 87 87 87 87 88 88 88 88 88 88 88 88 87 87 87 86 86 85 85 84 83 81 79 77 75 73 70 68 66 65 63 62 60 59 57 56 54 53 52 50 50 50 49 48 47 46 44 43 41 40 39 38 38 37 37 36 36 36 36 36 36 36 36 35 35 34 33 33 32 31 31 30 30 29 29
73 74 75 76 77 78 79 80 81 81 82 82 82 83 83 83 83 84 84 84 84 83 83 83 83 83 83 82 82 81 80 79 77 75 74 72 70 67 65 63 62 61 59 58 57 55 54 53 52 51 50 49 49 48 47 46 44 43 41 39 38 38 38 37 37 36 36 36 36 36 36 35 35 35 34 34 33 33 32 31 31 30 30 29 29 29
70 71 72 73 74 75 75 76 77 77 78 78 78 78 79 79 79 79 79 79 79 79 79 79 79 79 79 79 78 77 76 75 73 72 70 69 67 65 62 61 59 58 57 56 54 53 52 51 51 50 49 49 48 47 46 45 43 41 40 38 38 37 37 37 37 36 36 36 36 35 35 35 35 34 34 33 33 32 32 31 30 30 30 29 29 29
67 68 69 69 70 71 72 72 73 73 74 74 74 74 74 75 75 75 75 75 75 75 75 75 75 75 75 75 74 73 72 71 70 69 68 66 64 62 60 58 57 56 55 54 53 52 51 50 50 49 49 48 47 46 45 43 41 40 38 37 37 37 37 36 36 36 36 36 35 35 35 34 34 34 33 33 32 32 31 31 30 30 30 30 30 30
64 65 66 66 67 68 68 69 69 70 70 70 70 70 70 70 71 71 71 71 71 71 71 71 72 72 72 71 70 69 68 67 67 66 65 63 61 58 57 56 55 54 53 52 51 51 50 49 49 49 48 47 46 45 43 42 40 38 37 37 36 36 36 36 36 36 36 35 35 34 34 34 34 33 33 33 32 32 31 31 30 30 30 30 30 30
Wind_Direction
282 282 282 283 283 283 283 283 283 283 283 283 283 283 282 282 282 282 282 282 281 281 282 282 282 282 283 283 284 284 284 285 285 285 285 286 286 286 286 286 286 286 286 286 286 286 287 287 287 288 288 288 288 289 289 289 290 290 291 291 292 292 293 293 294 294 294 294 294 294 294 294 294 294 294 294 294 293 293 293 293 293 293 293 293 293
282 282 282 282 282 282 282 282 282 282 282 282 282 282 282 282 282 282 282 281 281 281 281 281 281 281 282 282 282 282 283 283 284 284 284 284 285 285 285 285 286 286 286 286 286 287 287 287 287 288 288 288 289 289 289 289 290 290 291 291 292 292 292 293 293 293 293 293 293 293 293 293 293 293 293 293 293 292 292 292 292 292 292 292 291 291
280 280 280 280 280 280 280 280 280 280 280 280 281 281 281 281 281 281 281 281 281 281 281 281 281 281 281 281 282 282 282 283 283 283 284 284 285 285 285 285 286 286 286 286 286 287 287 287 288 288 288 288 289 289 290 290 290 291 291 291 292 292 292 292 292 292 292 292 292 292 292 292 292 292 292 292 292 291 291 291 291 291 291 291 290 290
279 279 278 279 279 279 279 279 279 279 279 279 280 280 280 280 280 281 281 281 281 281 281 281 281 282 282 282 282 282 283 283 283 284 284 284 285 285 285 286 286 286 286 287 287 287 288 288 288 288 289 289 290 290 290 291 291 291 292 292 292 292 292 292 292 292 291 291 291 291 291 291 292 291 291 291 291 291 291 290 290 290 290 289 289 289
278 278 278 278 279 279 279 279 279 279 279 279 280 280 280 280 280 281 281 281 281 281 281 281 281 282 282 282 282 283 283 283 284 284 285 285 285 286 286 286 287 287 287 288 288 288 288 289 289 289 290 290 290 291 291 292 292 292 292 292 292 292 292 292 291 291 291 291 291 291 291 291 291 290 290 290 290 290 290 289 289 289 289 288 288 288
277 277 278 278 278 278 279 279 279 279 280 280 280 280 281 281 281 281 281 281 281 281 282 282 282 282 282 282 282 283 283 284 284 284 285 285 286 286 287 287 287 288 288 288 288 289 289 289 289 290 290 291 291 292 292 292 293 293 293 292 292 292 292 291 291 291 291 290 290 290 290 290 290 289 289 289 289 289 289 288 288 288 287 287 287 287
276 276 277 277 277 277 278 278 278 278 279 279 280 280 280 280 281 281 281 282 282 282 282 282 282 282 282 283 283 283 284 284 284 285 285 286 286 286 287 287 287 288 288 288 289 289 289 290 290 290 291 292 292 292 293 293 293 293 293 292 292 292 292 291 291 291 290 290 290 290 289 289 289 289 288 288 288 288 288 287 287 287 286 286 286 286
276 276 276 277 277 277 277 277 278 278 278 278 279 279 279 280 280 280 281 281 281 282 282 282 283 283 283 283 283 284 284 284 285 285 285 286 286 286 287 287 287 288 288 288 289 289 290 290 291 291 292 292 293 293 293 293 293 293 293 293 292 292 292 291 291 291 290 290 289 289 289 288 288 288 288 287 287 287 286 286 286 286 285 285 285 285
277 277 277 278 278 278 278 278 278 278 278 278 278 279 279 279 280 280 280 281 281 281 282 282 282 283 283 283 284 284 284 285 285 285 286 286 286 286 287 287 288 288 289 289 290 290 291 291 291 292 292 293 293 293 293 293 293 293 293 293 293 293 292 292 291 291 290 290 289 289 288 288 287 287 287 286 286 286 285 285 285 285 285 284 284 284
278 278 279 279 279 279 279 279 279 279 279 279 279 279 279 280 280 280 281 281 281 281 282 282 283 283 283 284 284 284 284 285 285 285 286 286 286 287 287 288 288 289 289 290 290 291 291 292 292 292 293 293 293 294 294 294 294 294 294 294 293 293 292 292 291 290 290 289 289 288 288 287 287 286 286 286 285 285 284 284 284 284 284 284 283 283
279 279 279 279 280 280 280 280 280 280 280 280 280 280 280 280 281 281 281 282 282 282 282 283 283 283 284 284 284 284 285 285 285 286 286 286 287 287 288 288 289 289 290 291 291 292 292 292 293 293 294 294 294 294 294 295 295 295 295 294 294 293 293 292 291 290 289 289 288 287 287 286 286 286 285 285 284 284 284 283 283 283 283 283 283 282
279 280 280 280 280 280 280 280 281 281 281 281 281 281 281 281 281 282 282 283 283 283 283 284 284 284 284 285 285 285 285 286 286 286 287 287 287 288 288 289 289 290 290 291 291 292 293 293 293 294 294 295 295 295 296 296 296 296 296 295 295 294 293 292 291 290 289 288 287 287 286 286 285 285 284 284 283 283 283 283 282 282 282 282 282 281
280 280 280 280 281 281 281 281 281 281 281 282 282 282 282 282 283 283 283 283 284 284 284 284 285 285 285 285 285 285 286 286 286 287 287 288 288 288 289 289 290 290 291 291 292 292 293 294 294 295 295 296 296 297 297 297 297 297 297 296 295 294 293 292 290 289 288 288 287 286 286 285 285 284 284 283 283 282 282 282 282 282 281 281 281 281
280 281 281 281 281 281 281 282 282 282 282 282 282 282 283 283 283 283 284 284 284 284 285 285 285 285 285 285 285 286 286 286 287 287 287 288 288 289 289 290 290 291 291 292 293 293 294 294 295 296 296 297 297 298 298 298 298 298 298 297 296 295 293 292 290 289 288 287 286 286 285 284 284 283 283 283 282 282 282 281 281 281 281 280 280 280
281 281 281 281 281 282 282 282 282 282 282 282 282 283 283 283 283 284 284 284 284 285 285 285 285 285 285 285 286 286 286 287 287 287 288 288 289 289 290 290 291 291 292 293 293 294 295 295 296 296 297 298 298 298 299 299 299 298 298 297 296 295 293 292 290 289 288 287 286 285 285 284 283 283 282 282 282 281 281 281 280 280 280 279 279 279
281 281 281 281 281 281 282 282 282 282 282 282 282 283 283 283 283 284 284 284 284 285 285 285 285 285 286 286 286 286 287 287 287 288 288 289 289 290 290 291 291 292 293 293 294 295 295 296 296 297 297 298 298 299 299 299 299 299 298 297 296 295 293 292 290 289 287 286 285 285 284 283 283 282 282 281 281 281 280 280 280 279 279 278 278 277
281 281 281 281 281 281 281 281 282 282 282 282 282 283 283 283 284 284 284 284 284 285 285 285 285 286 286 286 286 287 287 287 288 288 289 289 289 290 290 291 292 292 293 294 294 295 296 296 297 297 298 298 298 299 299 299 299 299 298 297 296 295 293 291 290 288 287 286 285 284 283 283 282 282 281 281 280 280 279 279 279 278 278 277 277 276
281 281 281 281 281 281 281 281 281 282 282 282 282 283 283 283 284 284 284 284 284 285 285 285 286 286 286 286 287 287 287 288 288 288 289 289 290 290 291 291 292 292 293 294 295 295 296 296 297 297 298 298 298 299 299 299 299 299 298 297 296 294 293 291 289 288 286 285 284 283 283 282 281 281 280 280 280 279 279 278 278 277 277 276 275 275
281 281 281 281 281 281 281 281 281 282 282 282 282 283 283 283 284 284 284 284 284 285 285 285 286 286 286 286 287 287 287 288 288 288 289 289 290 290 291 291 292 292 293 294 294 295 296 296 297 297 297 298 298 298 299 299 299 298 298 297 296 294 292 290 289 287 286 285 284 283 282 281 281 280 280 279 279 278 278 277 277 276 275 275 274 274
281 281 281 281 281 281 281 281 281 281 282 282 282 283 283 283 283 284 284 284 284 284 285 285 285 285 286 286 286 287 287 288 288 288 289 289 289 290 291 291 291 292 292 293 294 295 295 296 296 296 297 297 298 298 299 299 299 298 297 296 295 293 292 290 288 286 285 284 283 282 281 281 280 280 279 278 278 277 277 276 275 275 274 274 273 273
280 280 280 280 280 280 280 281 281 281 281 281 282 282 282 283 283 283 283 284 284 284 284 285 285 285 285 285 286 286 287 287 287 288 288 289 289 290 290 291 291 292 292 293 294 294 295 295 296 296 297 297 298 298 298 299 298 298 297 296 294 293 291 289 287 286 284 283 282 282 281 280 279 279 278 278 277 276 276 275 275 274 273 273 272 272
279 279 279 279 280 280 280 280 280 280 280 281 281 281 281 282 282 282 283 283 283 283 283 284 284 284 284 285 285 286 286 287 287 287 288 288 289 289 290 290 291 291 292 293 293 294 294 295 295 296 296 297 297 298 298 298 298 297 296 295 294 292 290 288 287 285 284 283 282 281 280 279 279 278 277 277 276 276 275 274 274 273 272 272 271 270
278 278 279 279 279 279 279 279 279 279 280 280 280 280 280 281 281 281 282 282 282 282 282 283 283 283 283 284 284 285 285 286 286 286 287 287 288 289 289 290 291 291 292 293 293 294 294 295 295 296 296 297 297 298 298 298 297 297 296 294 293 291 289 287 286 284 283 282 281 280 279 279 278 277 277 276 275 275 274 273 273 272 271 271 270 269
277 277 277 277 277 277 278 278 278 278 278 279 279 279 279 280 280 280 280 281 281 281 281 282 282 282 282 283 283 284 284 285 285 286 286 287 287 288 289 289 290 291 292 292 293 293 294 294 295 295 296 296 297 297 297 297 297 296 295 293 292 290 288 286 285 283 282 281 280 279 278 278 277 276 276 275 274 274 273 272 272 271 270 269 268 267
275 275 275 275 276 276 276 276 276 277 277 277 277 278 278 278 279 279 279 279 280 280 280 280 280 281 281 282 282 283 283 284 285 285 285 286 286 287 288 289 290 290 291 292 293 293 294 294 294 295 296 296 296 297 297 297 296 295 294 292 291 289 287 285 284 282 281 280 279 278 277 277 276 275 275 274 273 273 272 271 271 270 269 267 266 265
273 273 274 274 274 274 275 275 275 275 276 276 276 276 277 277 278 278 278 278 278 279 279 279 279 280 280 281 281 282 283 283 284 284 285 285 286 287 287 288 289 290 291 292 292 293 293 294 294 295 295 296 296 296 296 296 295 294 293 291 290 288 286 284 283 281 280 279 278 277 276 276 275 274 274 273 272 272 271 270 269 268 267 266 265 263
271 272 272 272 273 273 273 274 274 274 274 275 275 275 276 276 277 277 277 277 277 278 278 278 279 279 280 280 281 281 282 283 283 284 284 285 285 286 287 288 289 290 291 291 292 293 293 293 294 294 295 295 296 296 296 295 294 293 292 290 288 287 285 283 282 280 279 278 277 276 275 274 274 273 273 272 271 271 270 269 267 266 265 264 263 262
270 271 271 271 272 272 272 273 273 273 273 274 274 274 275 275 276 276 276 276 277 277 277 278 278 279 279 279 280 281 281 282 282 283 284 284 285 285 286 287 288 289 290 291 292 292 293 293 293 294 294 295 295 295 295 294 293 292 290 289 287 285 283 282 280 279 278 277 276 275 274 273 273 272 272 271 270 269 268 267 266 265 264 263 262 262
270 270 270 270 271 271 271 272 272 272 273 273 273 274 274 275 275 275 275 276 276 277 277 277 277 278 278 279 279 280 281 281 282 282 283 284 284 285 286 287 288 289 290 291 291 292 292 292 293 293 294 294 295 294 294 293 292 290 289 287 286 284 282 280 279 278 277 276 275 274 273 272 272 271 271 270 269 268 266 265 264 263 263 262 262 261
269 269 269 270 270 270 271 271 271 272 272 272 273 273 273 274 274 274 275 275 275 276 276 276 277 277 278 278 279 280 280 280 281 282 283 283 284 285 286 286 287 288 289 290 291 291 291 292 292 293 293 294 294 293 292 291 290 289 287 286 284 282 280 279 278 277 275 274 274 273 272 271 271 270 269 268 267 266 265 264 263 263 262 262 261 261
269 269 269 269 270 270 270 270 271 271 271 272 272 272 273 273 273 274 274 274 275 275 275 276 276 277 277 278 278 279 279 280 281 281 282 283 283 284 285 286 287 288 289 290 290 291 291 291 291 292 293 293 292 292 291 290 288 287 285 284 282 280 279 277 276 275 274 273 272 272 271 270 270 269 268 267 266 265 264 263 263 262 262 261 261 260
269 269 269 269 269 269 270 270 270 271 271 271 271 272 272 272 272 273 273 273 274 274 275 275 275 276 276 277 278 278 279 279 280 281 282 282 283 284 285 286 287 288 289 289 290 290 290 290 291 291 292 291 291 290 289 288 286 285 283 282 280 279 277 276 275 274 273 272 271 270 270 269 268 267 266 265 264 264 263 263 262 262 261 261 261 260
269 269 269 269 269 269 269 269 270 270 270 270 271 271 271 271 272 272 272 273 273 273 274 274 275 275 276 276 277 277 278 279 280 280 281 282 282 283 284 285 286 287 288 289 289 289 289 289 290 290 290 290 290 289 287 286 284 283 281 280 278 277 276 275 273 272 271 271 270 269 269 268 267 266 265 264 263 263 262 262 261 261 261 260 260 260
269 269 269 269 269 269 269 269 269 269 270 270 270 270 270 271 271 271 271 272 272 273 273 274 274 275 275 276 276 277 278 278 279 280 280 281 282 283 284 285 286 287 288 288 288 288 288 288 289 289 289 289 288 287 285 284 283 281 280 278 277 275 274 273 272 271 270 270 269 268 268 267 266 265 264 263 262 262 262 261 261 260 260 260 259 259
268 268 268 268 268 268 268 268 268 269 269 269 269 269 270 270 270 270 271 271 271 272 272 273 273 274 275 275 276 276 277 278 278 279 280 281 281 282 283 284 285 286 287 287 287 287 287 287 288 288 288 287 286 285 284 282 281 279 278 277 275 274 273 272 271 270 269 269 268 267 266 265 264 263 262 262 261 261 261 260 260 260 259 259 259 258
268 268 268 268 268 268 268 268 268 268 268 268 268 268 269 269 269 270 270 270 271 271 272 272 273 273 274 274 275 276 276 277 278 279 279 280 281 281 282 283 284 285 286 286 286 286 286 287 287 287 286 286 285 284 282 280 279 277 276 275 274 272 271 270 269 269 268 268 267 266 265 264 263 262 262 261 261 260 260 260 259 259 259 258 258 258
267 267 267 267 267 267 267 267 267 267 267 267 267 267 268 268 268 269 269 270 270 271 271 271 272 273 273 274 274 275 276 276 277 278 279 279 280 281 282 283 284 285 285 285 285 285 285 285 285 285 284 284 283 282 280 279 277 275 274 273 272 271 270 269 268 268 267 267 266 265 264 263 262 261 261 260 260 259 259 259 258 258 258 258 257 257
266 266 266 266 266 266 266 266 266 266 266 266 266 267 267 267 268 268 268 269 269 270 270 271 271 272 272 273 273 274 275 276 276 277 278 278 279 280 281 282 283 284 284 284 284 284 284 284 284 283 283 282 281 280 278 276 275 274 272 271 270 269 268 268 267 267 266 265 265 264 263 262 261 261 260 260 259 259 258 258 258 257 257 257 257 256
265 265 265 265 265 265 265 265 265 265 265 265 265 266 266 266 267 267 268 268 268 269 269 270 270 271 271 272 273 273 274 275 275 276 277 278 279 279 280 281 282 282 283 282 282 282 282 282 282 281 281 280 279 278 276 274 273 271 271 269 269 268 267 267 266 266 265 264 263 262 261 260 260 260 259 259 259 258 258 257 257 257 257 256 256 255
264 264 264 264 264 264 264 264 264 264 264 264 265 265 265 265 266 266 267 267 267 268 268 269 270 270 271 271 272 272 273 274 275 275 276 277 278 279 280 280 281 281 281 281 281 280 280 280 280 279 278 278 277 275 273 272 270 269 268 268 267 266 266 265 265 264 264 263 262 261 260 259 259 259 259 258 258 258 257 257 257 256 256 256 255 254
263 263 263 263 263 263 263 263 263 263 263 263 264 264 264 264 265 265 266 266 266 267 267 268 269 269 270 270 271 272 272 273 274 274 275 276 277 278 279 279 280 280 280 279 279 279 278 278 278 277 276 275 274 273 271 269 268 267 267 266 266 265 265 264 263 263 262 261 260 259 258 258 258 258 258 258 257 257 257 256 256 256 255 254 253 252
262 262 262 262 262 262 262 262 262 262 262 262 263 263 263 263 264 264 264 265 265 266 266 267 267 268 269 269 270 271 271 272 273 273 274 275 276 277 277 278 278 278 278 278 277 277 277 276 276 275 274 273 272 270 269 267 266 266 265 265 264 264 263 263 262 261 260 259 258 258 257 257 257 257 257 257 257 256 256 256 256 255 254 253 252 251
261 261 261 261 261 261 261 261 261 261 261 261 261 261 262 262 262 263 263 264 264 265 265 266 266 267 268 268 269 270 270 271 272 272 273 274 275 275 276 276 276 276 276 276 275 275 275 274 274 273 272 271 269 268 266 265 265 264 264 263 263 262 262 261 260 259 259 258 257 256 256 255 256 256 256 256 256 256 255 255 254 254 253 251 250 249
260 260 260 260 259 259 260 260 260 260 260 260 260 260 260 261 261 261 262 262 263 263 264 265 265 266 267 267 268 269 269 270 271 271 272 273 273 274 274 275 275 274 274 274 273 273 273 272 272 271 270 268 266 265 264 264 263 263 262 262 261 261 260 259 259 258 257 256 255 254 254 254 254 255 255 255 255 255 254 254 253 252 251 249 248 247
259 259 259 258 258 258 258 258 258 258 258 258 259 259 259 259 260 260 261 261 262 262 263 263 264 265 265 266 267 267 268 269 270 270 271 271 272 272 273 273 273 272 272 271 271 271 271 270 269 269 267 266 264 263 262 262 262 261 261 260 260 259 258 258 257 256 255 254 253 253 253 253 253 253 253 253 253 253 253 252 251 250 248 247 246 244
258 258 258 257 257 257 257 257 257 257 257 257 257 257 258 258 258 259 259 260 260 261 261 262 263 263 264 265 266 266 267 267 268 269 269 270 270 271 271 271 270 270 270 269 269 269 268 267 267 266 265 263 262 261 261 260 260 260 260 259 258 257 256 256 255 254 253 252 252 252 252 252 252 252 252 252 252 251 251 250 248 247 246 244 243 242
257 257 257 256 256 256 256 256 256 256 256 256 256 256 256 256 257 257 258 258 259 259 260 261 261 262 263 263 264 265 265 266 267 267 268 268 269 269 268 268 268 268 267 267 267 266 266 265 264 263 262 261 260 259 259 259 259 259 258 258 257 256 254 254 253 252 252 251 251 251 251 251 251 251 251 250 250 249 248 247 245 244 243 241 240 239
257 256 256 255 255 255 254 254 254 254 254 254 254 255 255 255 255 256 256 257 257 258 258 259 260 260 261 262 262 263 264 264 265 266 266 266 266 266 266 266 266 265 265 264 264 263 263 262 261 260 259 259 258 258 258 258 258 257 257 256 255 253 253 252 251 251 250 250 249 249 250 250 250 250 249 249 248 247 245 244 242 241 239 238 237 236
256 255 254 254 254 253 253 253 253 253 253 253 253 253 253 253 254 254 255 255 256 256 257 257 258 259 259 260 261 261 262 263 263 264 264 264 264 264 264 264 263 263 262 262 261 261 260 259 258 258 257 256 256 256 257 257 256 256 255 254 253 251 251 250 250 249 249 248 248 248 248 248 248 248 248 247 246 244 242 241 239 238 236 235 234 233
255 254 253 253 253 252 252 252 252 252 252 252 252 252 252 252 252 253 253 253 254 254 255 256 256 257 257 258 259 259 260 261 261 262 262 262 262 262 262 261 261 261 260 259 259 258 257 257 256 255 255 254 254 255 255 255 255 254 253 252 250 249 249 248 248 248 248 247 247 247 247 247 247 246 246 245 243 241 239 237 236 234 233 233 232 231
254 253 252 252 252 251 251 251 251 250 250 250 250 250 250 251 251 251 251 252 252 252 253 253 254 254 255 256 257 257 258 259 259 259 259 259 259 260 259 259 259 258 257 257 256 255 255 254 254 253 253 252 252 253 253 253 253 252 251 249 248 247 247 247 247 247 247 247 247 246 246 246 245 244 243 242 240 238 236 234 233 232 231 230 230 229
Height
10539 10537 10537 10537 10537 10536 10534 10534 10534 10535 10533 10531 10531 10531 10530 10530 10529 10528 10527 10527 10525 10525 10524 10523 10522 10521 10520 10520 10519 10519 10517 10517 10516 10515 10514 10512 10511 10510 10509 10508 10507 10506 10505 10505 10504 10502 10501 10500 10498 10497 10496 10495 10493 10492 10490 10488 10486 10484 10482 10479 10477 10475 10474 10471 10469 10467 10465 10464 10462 10459 10457 10455 10454 10452 10452 10451 10450 10450 10449 10449 10448 10447 10445 10444 10443 10442
10530 10529 10529 10528 10528 10528 10526 10525 10525 10527 10526 10524 10523 10523 10523 10522 10521 10520 10519 10519 10519 10518 10517 10517 10515 10515 10514 10513 10512 10512 10510 10510 10509 10507 10506 10505 10504 10503 10502 10501 10500 10499 10499 10498 10497 10495 10494 10492 10491 10490 10489 10487 10485 10484 10482 10480 10479 10476 10474 10472 10470 10468 10465 10464 10462 10460 10458 10456 10454 10452 10450 10450 10449 10447 10445 10445 10444 10443 10443 10442 10442 10440 10440 10439 10437 10436
10523 10522 10521 10520 10521 10521 10520 10518 10519 10519 10519 10518 10517 10516 10516 10515 10514 10513 10512 10512 10512 10511 10510 10510 10509 10508 10507 10505 10505 10504 10503 10502 10500 10499 10499 10497 10495 10495 10494 10493 10492 10491 10490 10490 10489 10489 10487 10485 10484 10482 10480 10479 10477 10475 10474 10472 10470 10469 10466 10464 10462 10460 10457 10455 10454 10452 10451 10449 10447 10445 10444 10444 10443 10442 10440 10439 10437 10437 10436 10435 10435 10435 10434 10433 10432 10430
10517 10515 10514 10513 10514 10514 10513 10512 10512 10512 10511 10510 10510 10509 10509 10508 10507 10505 10505 10504 10504 10504 10502 10502 10501 10500 10499 10497 10496 10495 10494 10494 10492 10491 10490 10489 10487 10485 10485 10484 10484 10483 10482 10481 10480 10480 10479 10477 10476 10474 10472 10470 10469 10467 10465 10464 10462 10460 10458 10456 10454 10452 10450 10448 10446 10445 10444 10442 10440 10439 10438 10437 10437 10435 10434 10433 10432 10430 10430 10429 10429 10429 10428 10427 10426 10425
10507 10507 10506 10505 10505 10505 10504 10503 10503 10503 10502 10502 10501 10500 10500 10499 10498 10497 10496 10496 10495 10495 10494 10494 10493 10492 10491 10489 10488 10487 10485 10485 10484 10482 10481 10480 10478 10477 10476 10475 10475 10474 10473 10472 10472 10471 10470 10469 10468 10466 10465 10463 10461 10459 10457 10455 10454 10452 10450 10448 10446 10444 10442 10440 10439 10438 10437 10435 10433 10432 10432 10431 10430 10430 10429 10427 10426 10425 10424 10424 10423 10422 10422 10422 10421 10420
10499 10498 10497 10497 10495 10495 10494 10494 10494 10494 10493 10492 10492 10491 10490 10490 10489 10488 10487 10487 10486 10486 10485 10485 10484 10483 10482 10480 10479 10478 10477 10476 10475 10473 10472 10471 10470 10469 10467 10467 10466 10465 10464 10464 10463 10462 10462 10460 10459 10458 10457 10455 10454 10452 10450 10448 10446 10444 10442 10440 10439 10437 10435 10434 10432 10430 10429 10428 10426 10425 10425 10425 10424 10423 10422 10421 10420 10419 10418 10417 10417 10417 10417 10416 10415 10414
10490 10490 10489 10489 10487 10486 10485 10485 10485 10485 10484 10484 10482 10482 10481 10480 10480 10479 10479 10478 10477 10477 10477 10476 10475 10474 10473 10472 10470 10469 10469 10467 10466 10465 10464 10462 10462 10460 10459 10459 10457 10457 10456 10455 10455 10454 10453 10452 10451 10450 10449 10447 10446 10444 10442 10440 10439 10437 10435 10433 10431 10430 10428 10427 10425 10424 10422 10421 10420 10419 10419 10418 10417 10417 10415 10415 10414 10413 10412 10412 10411 10410 10410 10410 10409 10409
10482 10481 10480 10479 10479 10477 10477 10476 10476 10476 10475 10475 10474 10473 10472 10471 10471 10470 10470 10470 10469 10469 10468 10467 10466 10465 10464 10463 10462 10461 10460 10459 10457 10456 10455 10454 10454 10452 10452 10450 10449 10448 10447 10447 10446 10445 10445 10444 10444 10442 10442 10440 10439 10437 10435 10434 10432 10430 10429 10427 10425 10423 10422 10420 10419 10417 10415 10415 10414 10413 10412 10412 10410 10410 10409 10409 10408 10407 10407 10406 10405 10405 10404 10404 10404 10403
10474 10472 10470 10469 10469 10469 10467 10466 10465 10465 10466 10466 10465 10464 10462 10462 10462 10461 10461 10461 10461 10460 10460 10459 10458 10456 10455 10455 10454 10453 10452 10450 10449 10449 10447 10447 10445 10445 10444 10443 10442 10440 10440 10439 10438 10437 10437 10436 10435 10435 10434 10434 10432 10430 10429 10427 10425 10424 10422 10420 10419 10417 10415 10414 10412 10411 10410 10409 10407 10407 10405 10405 10404 10404 10404 10403 10402 10402 10401 10400 10400 10399 10399 10399 10398 10398
10464 10463 10462 10460 10459 10459 10458 10457 10455 10454 10455 10456 10455 10454 10454 10454 10453 10452 10452 10452 10452 10452 10452 10451 10450 10448 10447 10446 10445 10445 10444 10442 10441 10440 10440 10439 10438 10437 10436 10435 10434 10433 10432 10432 10430 10430 10429 10429 10429 10428 10427 10427 10425 10424 10422 10421 10419 10417 10416 10414 10412 10410 10409 10407 10406 10405 10404 10402 10401 10400 10399 10399 10398 10397 10397 10397 10397 10396 10395 10395 10394 10394 10393 10393 10392 10392
10454 10453 10452 10452 10450 10449 10449 10447 10445 10445 10445 10446 10445 10445 10444 10444 10445 10444 10444 10442 10442 10442 10442 10442 10442 10440 10439 10438 10437 10436 10436 10435 10434 10433 10432 10432 10431 10430 10429 10428 10427 10426 10425 10424 10424 10423 10422 10422 10421 10421 10420 10420 10419 10417 10416 10414 10413 10411 10410 10408 10406 10404 10402 10401 10400 10399 10397 10396 10395 10394 10393 10392 10392 10391 10391 10391 10390 10390 10390 10389 10389 10388 10387 10387 10387 10387
10445 10444 10444 10443 10442 10440 10439 10438 10437 10436 10436 10436 10436 10435 10434 10435 10436 10437 10437 10435 10434 10434 10434 10434 10433 10432 10431 10430 10429 10428 10428 10427 10426 10425 10425 10424 10424 10423 10422 10421 10420 10420 10419 10418 10417 10416 10415 10415 10414 10414 10414 10412 10412 10410 10409 10408 10406 10405 10403 10402 10400 10398 10396 10395 10394 10392 10391 10390 10389 10388 10387 10386 10385 10385 10385 10385 10384 10384 10384 10383 10383 10382 10382 10382 10382 10381
10436 10435 10435 10435 10434 10432 10431 10429 10428 10427 10427 10427 10427 10427 10426 10426 10428 10429 10429 10427 10426 10425 10426 10425 10425 10424 10423 10422 10422 10420 10420 10419 10419 10418 10418 10417 10416 10416 10415 10414 10414 10413 10412 10412 10410 10410 10409 10409 10408 10407 10406 10405 10405 10404 10402 10401 10400 10398 10397 10395 10393 10392 10390 10389 10387 10386 10385 10384 10383 10382 10381 10380 10380 10379 10379 10379 10379 10378 10378 10377 10377 10377 10376 10376 10376 10375
10428 10428 10427 10427 10425 10424 10423 10422 10420 10419 10418 10418 10418 10419 10419 10419 10420 10421 10420 10420 10419 10419 10419 10418 10417 10415 10415 10415 10414 10414 10413 10412 10411 10410 10410 10410 10409 10409 10408 10407 10406 10405 10405 10405 10404 10403 10402 10402 10401 10400 10399 10399 10398 10397 10395 10394 10393 10391 10390 10388 10387 10385 10384 10382 10381 10380 10379 10377 10377 10375 10375 10374 10374 10374 10373 10373 10372 10372 10372 10372 10371 10371 10370 10370 10370 10370
10420 10420 10420 10419 10418 10417 10415 10415 10414 10412 10410 10410 10410 10411 10411 10412 10412 10414 10414 10413 10412 10411 10412 10410 10409 10408 10407 10407 10407 10407 10406 10405 10404 10403 10403 10402 10402 10402 10402 10400 10399 10398 10398 10398 10397 10395 10395 10395 10394 10393 10392 10392 10391 10390 10389 10387 10386 10385 10383 10382 10380 10379 10377 10375 10374 10374 10372 10371 10370 10370 10369 10369 10368 10368 10367 10367 10367 10367 10367 10366 10366 10365 10365 10365 10365 10365
10414 10414 10413 10412 10410 10409 10408 10407 10406 10405 10404 10403 10403 10404 10404 10405 10405 10406 10407 10406 10405 10404 10404 10403 10402 10400 10399 10399 10400 10400 10399 10398 10397 10396 10395 10394 10394 10394 10395 10393 10392 10390 10390 10390 10389 10389 10387 10387 10387 10386 10385 10385 10384 10384 10382 10381 10379 10378 10376 10375 10374 10372 10370 10369 10368 10367 10366 10365 10364 10364 10363 10363 10362 10362 10362 10362 10361 10361 10361 10360 10360 10360 10360 10360 10360 10360
10406 10406 10405 10404 10403 10402 10400 10400 10399 10398 10397 10396 10396 10396 10397 10398 10399 10399 10399 10399 10398 10397 10396 10396 10395 10394 10392 10390 10391 10392 10392 10392 10390 10389 10389 10387 10386 10386 10387 10387 10385 10383 10383 10383 10382 10381 10380 10380 10379 10379 10379 10379 10378 10377 10376 10375 10373 10372 10370 10369 10367 10365 10364 10363 10362 10361 10360 10359 10359 10358 10357 10357 10357 10356 10356 10356 10355 10355 10355 10355 10355 10355 10355 10355 10354 10355
10399 10398 10398 10397 10395 10394 10394 10393 10392 10390 10390 10389 10389 10389 10390 10390 10392 10392 10392 10391 10390 10390 10389 10389 10389 10387 10386 10384 10382 10383 10385 10385 10383 10381 10381 10380 10379 10379 10380 10380 10379 10377 10376 10376 10375 10375 10374 10373 10372 10372 10372 10371 10371 10370 10369 10368 10367 10365 10364 10362 10360 10359 10358 10357 10356 10355 10354 10354 10353 10352 10352 10352 10351 10351 10350 10350 10350 10350 10350 10350 10350 10350 10350 10350 10350 10350
10390 10390 10390 10389 10388 10387 10387 10385 10384 10384 10382 10382 10382 10382 10383 10383 10384 10384 10384 10384 10383 10383 10382 10382 10381 10380 10379 10377 10375 10375 10377 10377 10376 10375 10374 10373 10372 10372 10372 10372 10372 10370 10370 10370 10370 10369 10369 10367 10366 10365 10365 10364 10364 10364 10363 10362 10360 10359 10357 10355 10354 10353 10352 10351 10350 10349 10349 10348 10347 10347 10347 10347 10346 10345 10345 10345 10345 10345 10345 10345 10345 10345 10345 10345 10345 10345
10382 10382 10382 10381 10380 10380 10379 10378 10377 10377 10376 10375 10375 10375 10375 10375 10376 10377 10377 10376 10376 10375 10375 10375 10374 10372 10372 10370 10369 10369 10370 10370 10370 10368 10367 10366 10365 10364 10365 10365 10365 10364 10364 10364 10364 10364 10363 10361 10360 10359 10359 10358 10357 10357 10356 10355 10354 10352 10351 10350 10348 10347 10346 10345 10344 10343 10342 10342 10342 10342 10341 10341 10340 10340 10340 10340 10340 10340 10340 10340 10340 10340 10340 10340 10340 10340
10375 10374 10373 10374 10374 10373 10372 10370 10370 10370 10369 10369 10369 10369 10369 10369 10369 10369 10369 10369 10369 10369 10369 10368 10367 10365 10365 10364 10362 10361 10362 10364 10363 10361 10360 10359 10358 10357 10357 10359 10359 10358 10357 10357 10358 10358 10357 10355 10354 10354 10353 10352 10352 10350 10350 10349 10348 10347 10345 10344 10342 10341 10340 10339 10338 10337 10337 10337 10336 10336 10336 10335 10335 10335 10335 10335 10335 10335 10335 10335 10335 10335 10335 10335 10335 10336
10367 10366 10365 10365 10366 10365 10364 10364 10363 10363 10363 10363 10362 10362 10361 10362 10362 10362 10362 10362 10363 10362 10362 10360 10360 10359 10358 10357 10355 10355 10355 10357 10356 10355 10354 10353 10351 10350 10350 10352 10352 10351 10351 10351 10351 10351 10350 10349 10348 10347 10347 10346 10345 10344 10344 10343 10342 10340 10339 10338 10337 10335 10334 10334 10333 10332 10332 10331 10331 10330 10330 10330 10330 10330 10330 10330 10330 10330 10330 10330 10330 10330 10330 10331 10331 10332
10360 10359 10358 10358 10358 10357 10357 10357 10356 10356 10356 10356 10355 10355 10355 10355 10355 10355 10355 10356 10356 10355 10355 10354 10353 10352 10351 10350 10349 10349 10349 10349 10350 10349 10349 10347 10344 10342 10343 10345 10345 10345 10344 10344 10345 10345 10344 10343 10342 10341 10340 10340 10339 10339 10337 10337 10335 10335 10334 10332 10331 10330 10329 10328 10327 10327 10326 10326 10325 10325 10325 10325 10325 10325 10325 10325 10325 10325 10325 10325 10325 10326 10326 10327 10327 10327
10352 10352 10351 10350 10350 10350 10350 10350 10349 10349 10349 10349 10349 10349 10348 10349 10349 10350 10350 10350 10350 10349 10348 10347 10346 10345 10344 10344 10343 10342 10342 10342 10344 10344 10342 10340 10339 10337 10337 10338 10339 10338 10337 10338 10339 10339 10337 10336 10335 10335 10334 10334 10333 10332 10332 10330 10330 10329 10327 10326 10325 10324 10324 10323 10322 10322 10321 10321 10320 10320 10320 10320 10320 10320 10320 10320 10320 10320 10320 10321 10321 10322 10322 10322 10323 10323
10345 10345 10344 10344 10343 10343 10343 10343 10342 10342 10342 10342 10342 10342 10342 10342 10343 10344 10344 10344 10344 10342 10341 10340 10339 10338 10337 10337 10337 10335 10335 10335 10337 10337 10336 10334 10332 10331 10330 10332 10332 10332 10331 10331 10332 10332 10331 10330 10329 10329 10329 10328 10327 10327 10325 10325 10324 10323 10322 10320 10320 10319 10318 10317 10317 10317 10316 10316 10315 10315 10315 10315 10315 10315 10315 10315 10315 10316 10316 10317 10317 10317 10317 10318 10318 10319
10337 10337 10337 10336 10335 10335 10335 10335 10335 10335 10335 10335 10335 10335 10335 10335 10336 10337 10337 10336 10336 10335 10335 10334 10332 10331 10330 10330 10330 10329 10328 10329 10330 10330 10330 10329 10327 10325 10324 10325 10326 10327 10325 10324 10325 10325 10324 10323 10322 10322 10322 10322 10321 10320 10320 10319 10318 10317 10316 10315 10314 10314 10313 10312 10312 10312 10311 10311 10311 10310 10310 10310 10310 10310 10310 10310 10311 10312 10312 10312 10312 10313 10313 10314 10314 10314
10329 10329 10329 10329 10328 10328 10327 10327 10328 10328 10328 10328 10327 10327 10328 10329 10329 10329 10329 10328 10328 10328 10328 10327 10325 10324 10324 10324 10323 10322 10322 10322 10323 10323 10323 10323 10321 10319 10318 10319 10320 10320 10320 10319 10318 10318 10318 10317 10316 10316 10316 10316 10315 10315 10314 10313 10312 10311 10310 10309 10309 10308 10307 10307 10307 10307 10306 10306 10306 10306 10305 10305 10305 10306 10306 10306 10307 10307 10307 10308 10308 10309 10309 10309 10309 10310
10321 10321 10321 10320 10320 10320 10319 10319 10320 10320 10320 10320 10320 10320 10320 10322 10322 10322 10320 10319 10320 10321 10320 10319 10319 10318 10317 10317 10316 10316 10316 10316 10315 10315 10316 10317 10315 10314 10312 10313 10314 10315 10314 10313 10312 10312 10312 10311 10310 10310 10310 10310 10310 10309 10308 10307 10306 10305 10304 10304 10303 10303 10302 10302 10302 10302 10302 10301 10301 10301 10301 10301 10301 10302 10302 10302 10302 10303 10303 10304 10304 10304 10304 10305 10305 10305
10312 10312 10312 10312 10312 10312 10311 10311 10312 10312 10312 10312 10312 10312 10313 10314 10314 10314 10312 10312 10313 10314 10312 10311 10311 10311 10311 10310 10310 10309 10309 10309 10308 10309 10310 10311 10309 10307 10307 10307 10308 10309 10309 10308 10307 10305 10305 10305 10305 10305 10305 10304 10304 10304 10302 10301 10300 10300 10299 10299 10298 10297 10297 10297 10297 10297 10297 10297 10297 10297 10297 10297 10297 10297 10297 10298 10298 10299 10299 10299 10299 10300 10300 10300 10300 10301
10303 10304 10304 10304 10304 10303 10303 10303 10303 10303 10304 10304 10305 10305 10305 10305 10306 10305 10304 10305 10305 10305 10304 10304 10304 10304 10304 10304 10304 10303 10302 10301 10301 10303 10305 10305 10303 10301 10301 10302 10302 10302 10304 10303 10302 10299 10298 10298 10299 10299 10299 10299 10299 10297 10297 10296 10295 10294 10294 10294 10293 10293 10292 10292 10292 10292 10292 10292 10292 10292 10292 10292 10293 10293 10294 10294 10294 10294 10295 10295 10295 10295 10295 10296 10297 10297
10292 10294 10295 10295 10295 10295 10295 10295 10294 10295 10295 10295 10296 10297 10297 10297 10297 10297 10297 10297 10297 10297 10297 10296 10296 10297 10297 10298 10298 10296 10294 10293 10294 10296 10299 10299 10297 10295 10295 10296 10296 10296 10297 10298 10297 10294 10292 10291 10292 10294 10294 10294 10293 10292 10292 10290 10290 10289 10289 10289 10288 10288 10288 10288 10287 10287 10287 10287 10288 10288 10288 10289 10289 10289 10289 10290 10290 10290 10290 10290 10291 10291 10292 10292 10292 10293
10282 10284 10285 10285 10285 10286 10286 10286 10286 10286 10287 10287 10287 10288 10289 10289 10289 10289 10289 10289 10289 10289 10289 10289 10289 10290 10290 10291 10291 10290 10287 10287 10287 10290 10292 10292 10290 10289 10290 10290 10290 10290 10291 10292 10292 10290 10287 10286 10286 10287 10289 10288 10287 10287 10286 10285 10285 10284 10284 10284 10284 10283 10283 10283 10283 10283 10283 10283 10284 10284 10284 10284 10285 10285 10285 10285 10285 10286 10286 10287 10287 10287 10287 10288 10289 10289
10271 10273 10274 10275 10276 10277 10277 10277 10277 10277 10278 10278 10279 10279 10280 10280 10281 10281 10280 10281 10281 10281 10282 10282 10282 10282 10283 10284 10284 10282 10281 10280 10281 10283 10285 10285 10285 10284 10284 10285 10285 10285 10285 10285 10285 10284 10283 10282 10281 10282 10282 10282 10282 10282 10281 10280 10280 10280 10279 10279 10279 10279 10279 10279 10279 10279 10279 10279 10279 10279 10280 10280 10280 10281 10281 10282 10282 10282 10282 10282 10283 10283 10284 10284 10285 10285
10260 10262 10264 10265 10267 10267 10268 10268 10269 10269 10269 10269 10269 10270 10270 10271 10272 10272 10272 10272 10273 10274 10274 10275 10275 10275 10276 10276 10276 10275 10274 10274 10275 10277 10279 10279 10279 10278 10278 10279 10280 10280 10280 10280 10279 10278 10277 10277 10277 10277 10277 10277 10277 10276 10275 10275 10275 10275 10275 10274 10274 10274 10274 10274 10274 10274 10274 10275 10275 10275 10276 10277 10277 10277 10277 10277 10278 10278 10279 10279 10279 10280 10280 10280 10281 10282
10249 10251 10252 10254 10256 10257 10258 10259 10259 10259 10260 10260 10260 10260 10261 10262 10263 10264 10264 10264 10265 10265 10266 10267 10268 10269 10270 10270 10269 10269 10267 10267 10268 10270 10272 10272 10272 10272 10273 10273 10274 10275 10275 10274 10273 10272 10271 10270 10271 10272 10272 10271 10271 10270 10270 10270 10270 10270 10270 10270 10270 10270 10269 10270 10270 10270 10270 10270 10271 10272 10272 10272 10273 10273 10273 10274 10274 10274 10275 10275 10275 10276 10276 10277 10277 10278
10238 10240 10242 10244 10245 10247 10248 10249 10249 10250 10250 10250 10250 10251 10252 10253 10254 10255 10255 10257 10257 10258 10259 10260 10260 10262 10263 10263 10263 10262 10261 10260 10262 10264 10265 10265 10266 10267 10267 10267 10268 10269 10270 10268 10267 10266 10266 10265 10265 10266 10266 10266 10265 10265 10265 10265 10265 10265 10265 10265 10265 10265 10265 10265 10265 10266 10266 10267 10267 10268 10268 10269 10269 10269 10269 10270 10270 10270 10271 10272 10272 10272 10273 10274 10274 10274
10227 10229 10230 10232 10234 10236 10237 10237 10239 10239 10240 10240 10241 10242 10243 10244 10245 10247 10247 10249 10249 10250 10251 10252 10253 10254 10255 10256 10256 10255 10255 10255 10256 10257 10258 10259 10260 10261 10262 10262 10262 10264 10264 10262 10261 10260 10260 10260 10260 10260 10260 10260 10260 10260 10260 10260 10260 10260 10260 10260 10260 10260 10260 10261 10261 10262 10262 10263 10263 10264 10264 10265 10265 10265 10265 10266 10266 10267 10267 10268 10269 10269 10269 10270 10270 10271
10215 10217 10219 10221 10224 10225 10226 10227 10227 10228 10229 10230 10231 10232 10234 10236 10237 10239 10239 10240 10242 10242 10244 10244 10245 10247 10248 10249 10249 10249 10249 10249 10250 10250 10252 10252 10254 10255 10257 10257 10257 10257 10257 10257 10256 10255 10255 10255 10255 10255 10255 10255 10255 10255 10255 10255 10255 10255 10255 10256 10256 10256 10257 10257 10257 10258 10259 10259 10259 10260 10260 10260 10261 10261 10262 10262 10262 10263 10264 10264 10265 10265 10266 10266 10267 10267
10204 10206 10208 10210 10212 10214 10214 10215 10216 10217 10219 10220 10222 10224 10225 10227 10229 10230 10231 10232 10234 10235 10235 10237 10238 10239 10240 10241 10242 10242 10242 10243 10244 10244 10245 10247 10248 10250 10251 10252 10252 10251 10251 10251 10250 10250 10250 10250 10250 10250 10250 10250 10250 10250 10250 10251 10251 10251 10251 10252 10252 10252 10252 10253 10254 10254 10255 10255 10256 10256 10257 10257 10257 10257 10258 10259 10259 10260 10260 10260 10261 10262 10262 10263 10264 10264
10193 10195 10197 10199 10200 10201 10203 10204 10205 10206 10208 10210 10213 10215 10217 10219 10220 10221 10222 10224 10225 10227 10228 10229 10230 10232 10233 10234 10235 10235 10235 10236 10237 10238 10239 10240 10242 10244 10245 10246 10246 10245 10245 10245 10244 10244 10244 10244 10244 10244 10245 10245 10245 10245 10246 10246 10246 10247 10247 10247 10247 10247 10249 10249 10250 10250 10251 10252 10252 10252 10253 10253 10254 10254 10254 10255 10255 10256 10257 10257 10258 10259 10259 10260 10260 10261
10182 10184 10185 10187 10188 10190 10191 10192 10194 10196 10199 10201 10203 10205 10207 10209 10210 10212 10214 10215 10217 10219 10220 10221 10223 10224 10225 10227 10227 10229 10229 10230 10230 10232 10233 10235 10237 10239 10239 10240 10240 10240 10239 10239 10238 10238 10239 10239 10239 10239 10240 10240 10241 10241 10241 10241 10242 10242 10242 10243 10243 10244 10244 10245 10246 10247 10247 10248 10249 10249 10249 10249 10250 10250 10250 10251 10252 10252 10253 10254 10255 10255 10256 10256 10257 10257
10170 10172 10173 10175 10177 10178 10180 10182 10184 10186 10189 10191 10193 10195 10197 10199 10201 10204 10205 10207 10209 10210 10212 10214 10215 10217 10217 10219 10220 10222 10223 10224 10224 10225 10227 10229 10231 10232 10234 10234 10234 10234 10233 10233 10232 10232 10233 10234 10234 10234 10235 10235 10236 10236 10236 10236 10237 10238 10239 10239 10239 10240 10240 10241 10242 10243 10244 10244 10245 10245 10246 10246 10246 10247 10247 10248 10249 10249 10250 10250 10251 10252 10252 10253 10254 10254
10159 10160 10162 10164 10165 10167 10169 10171 10174 10175 10178 10180 10182 10184 10187 10189 10192 10195 10197 10198 10200 10202 10204 10206 10207 10209 10210 10212 10213 10214 10215 10217 10218 10219 10221 10223 10225 10226 10227 10227 10228 10227 10227 10227 10227 10227 10227 10228 10229 10229 10230 10231 10231 10231 10231 10232 10232 10233 10234 10235 10235 10236 10237 10237 10238 10239 10240 10240 10241 10242 10242 10242 10243 10243 10244 10244 10245 10245 10246 10247 10248 10249 10249 10250 10250 10251
10148 10150 10152 10153 10155 10157 10159 10161 10163 10165 10167 10170 10172 10174 10177 10180 10183 10185 10188 10189 10192 10194 10196 10198 10200 10202 10204 10204 10205 10207 10209 10210 10212 10214 10215 10217 10219 10220 10221 10222 10222 10221 10221 10221 10221 10221 10222 10222 10224 10224 10225 10226 10226 10226 10227 10227 10228 10229 10230 10230 10232 10232 10233 10234 10235 10236 10237 10237 10238 10238 10239 10239 10239 10240 10240 10241 10242 10242 10243 10244 10244 10245 10246 10247 10247 10249
10138 10140 10142 10143 10145 10147 10149 10150 10152 10154 10157 10160 10162 10165 10168 10171 10174 10177 10179 10181 10184 10186 10188 10190 10193 10195 10196 10197 10199 10200 10202 10203 10205 10207 10209 10210 10212 10214 10215 10215 10215 10215 10215 10215 10215 10216 10217 10217 10218 10219 10220 10221 10221 10221 10222 10223 10224 10225 10226 10227 10228 10229 10229 10230 10231 10232 10233 10234 10234 10235 10235 10235 10236 10237 10237 10237 10238 10239 10240 10240 10241 10242 10243 10244 10245 10245
10128 10130 10132 10134 10135 10137 10139 10140 10142 10145 10148 10150 10153 10155 10159 10162 10165 10168 10170 10173 10176 10178 10180 10183 10185 10188 10189 10190 10192 10194 10195 10197 10198 10200 10202 10205 10207 10208 10209 10209 10209 10209 10209 10210 10210 10210 10211 10212 10213 10214 10215 10215 10216 10217 10217 10219 10220 10221 10222 10223 10224 10225 10226 10227 10228 10229 10229 10230 10230 10231 10232 10232 10233 10233 10234 10234 10235 10235 10237 10237 10238 10239 10240 10241 10242 10242
10119 10121 10122 10124 10126 10127 10129 10131 10134 10136 10139 10141 10144 10147 10150 10154 10157 10159 10162 10165 10168 10171 10173 10175 10178 10180 10181 10183 10185 10187 10188 10189 10191 10194 10196 10199 10200 10202 10202 10203 10203 10204 10204 10204 10205 10205 10206 10207 10208 10209 10210 10210 10211 10212 10213 10214 10216 10217 10218 10219 10220 10222 10222 10223 10224 10225 10226 10227 10227 10227 10228 10229 10229 10229 10230 10231 10232 10232 10234 10234 10235 10236 10237 10238 10239 10240
10110 10112 10114 10115 10117 10119 10120 10122 10125 10127 10129 10132 10135 10139 10142 10145 10149 10152 10154 10157 10160 10164 10166 10169 10171 10173 10175 10176 10178 10180 10182 10183 10185 10187 10190 10192 10194 10195 10196 10197 10197 10197 10198 10199 10200 10200 10201 10202 10203 10204 10205 10206 10207 10207 10209 10210 10212 10213 10214 10215 10217 10218 10219 10219 10220 10222 10222 10223 10224 10224 10225 10225 10225 10226 10227 10228 10229 10229 10230 10231 10232 10233 10234 10235 10236 10237
10102 10104 10105 10107 10109 10110 10112 10114 10117 10119 10121 10124 10128 10131 10134 10137 10141 10144 10147 10150 10154 10157 10159 10161 10164 10166 10168 10169 10171 10173 10175 10177 10179 10180 10183 10185 10187 10189 10190 10190 10191 10192 10192 10193 10194 10195 10196 10197 10198 10199 10200 10201 10202 10204 10205 10206 10208 10209 10211 10212 10213 10214 10215 10216 10217 10218 10219 10219 10220 10220 10221 10222 10222 10223 10224 10225 10225 10226 10227 10229 10229 10230 10231 10232 10234 10235
10094 10095 10097 10099 10100 10102 10104 10107 10109 10111 10114 10117 10120 10124 10127 10130 10134 10137 10140 10144 10147 10149 10152 10154 10157 10159 10160 10162 10164 10167 10169 10170 10172 10174 10176 10178 10180 10182 10184 10184 10185 10186 10187 10188 10189 10190 10191 10192 10193 10194 10195 10197 10198 10200 10201 10202 10204 10206 10207 10209 10209 10210 10212 10212 10214 10214 10215 10216 10217 10217 10218 10219 10219 10220 10220 10222 10222 10223 10224 10225 10226 10227 10229 10230 10231 10232
10087 10088 10090 10091 10093 10095 10097 10099 10102 10104 10107 10110 10114 10117 10120 10124 10127 10130 10134 10137 10140 10142 10145 10147 10150 10152 10154 10155 10158 10160 10162 10164 10166 10168 10170 10172 10175 10177 10178 10179 10179 10180 10182 10182 10184 10185 10186 10187 10189 10189 10191 10192 10194 10196 10197 10199 10200 10202 10204 10205 10206 10207 10208 10209 10210 10210 10212 10212 10213 10214 10215 10215 10216 10217 10217 10219 10219 10220 10221 10222 10224 10225 10226 10227 10229 10229